Wind_Speed
57 57 57 58 60 61 62 62 62 62 62 62 62 63 64 65 66 66 65 64 64 64 64 64 63 63 63 63 64 64 63 61 60 59 56 53 49 45 43 41 38 36 35 34 34 35 36 36 35 35 36 37 38 39 40 40 41 42 43 45 47 48 48 49 50 51 53 53 53 54 56 58 59 59 59 59 59 60 61 63 64 65 65 65 65 65 65 66
56 55 55 56 58 60 61 61 61 62 62 63 64 65 65 65 64 63 62 62 62 62 62 62 61 61 61 61 62 62 60 57 56 54 51 48 45 42 40 39 37 35 34 34 34 35 37 39 39 40 41 41 42 42 43 44 45 45 47 48 50 51 51 52 53 55 56 57 58 59 60 61 63 63 64 64 64 65 65 66 66 67 67 67 67 67 68 69
53 54 56 57 58 58 59 60 61 61 62 63 64 64 64 63 62 62 61 61 60 59 59 59 59 59 59 59 59 58 56 53 50 48 46 44 41 40 38 36 35 34 33 33 33 34 35 38 39 41 43 45 46 47 47 48 49 50 51 53 54 55 56 57 58 60 60 62 63 64 65 65 66 67 67 68 68 70 71 71 71 71 71 71 70 70 71 72
48 51 54 55 56 56 56 56 57 59 59 60 60 60 60 60 60 59 58 56 55 55 55 55 55 55 55 55 54 53 51 48 46 43 42 40 38 37 35 34 33 33 33 34 34 35 36 37 38 40 41 44 47 48 49 51 52 53 55 57 58 59 60 62 64 65 65 66 67 68 69 70 70 71 71 72 72 73 75 75 76 76 76 76 76 76 75 76
43 46 48 49 50 50 49 50 52 53 53 53 53 54 54 54 54 53 52 51 50 51 51 51 52 52 51 50 49 48 46 44 42 39 38 37 35 34 34 33 33 34 35 35 36 36 37 39 40 41 41 43 46 48 49 51 53 55 57 59 60 61 63 64 66 67 68 68 69 69 70 72 72 73 74 74 75 76 77 78 78 79 79 79 79 79 79 80
38 40 41 42 44 43 43 45 45 46 46 46 47 47 47 47 46 46 46 46 47 47 47 47 48 48 47 45 44 43 41 39 38 36 35 35 34 34 34 34 34 35 36 36 37 38 40 41 43 44 45 47 50 52 53 55 57 59 61 62 62 63 64 66 67 68 68 68 69 69 70 71 72 73 74 75 76 77 78 79 80 81 82 82 82 81 82 83
38 39 39 40 41 40 41 41 41 42 42 43 43 43 43 42 41 42 43 43 44 44 44 44 44 44 43 42 40 38 36 35 35 35 35 35 35 35 35 35 35 36 38 39 40 42 44 46 48 50 51 53 55 57 58 59 61 61 62 63 63 63 64 64 65 65 66 66 66 66 67 68 68 69 70 72 73 73 74 76 78 80 81 82 83 83 84 85
38 38 38 38 39 39 38 38 39 39 39 38 38 38 38 38 38 39 40 41 41 41 41 41 41 41 40 38 37 35 35 35 35 36 36 36 37 37 38 38 39 40 42 43 45 46 48 50 52 54 55 57 58 59 59 60 61 61 62 62 62 61 61 62 62 62 62 62 62 61 61 62 63 63 65 66 66 66 68 69 71 73 75 77 79 80 81 82
37 36 36 37 37 37 37 37 37 37 37 35 35 35 36 37 38 39 40 40 40 40 41 40 39 38 37 37 36 35 35 36 37 37 38 39 39 40 41 42 43 44 46 47 48 50 51 53 55 56 57 58 58 59 59 59 60 61 60 61 61 60 60 60 60 59 59 59 58 58 58 58 59 60 61 63 62 63 64 64 66 68 70 72 74 75 76 77
35 35 35 36 36 36 36 36 36 36 35 34 34 35 36 37 38 39 40 40 40 40 40 38 37 36 36 35 35 35 36 37 37 39 40 40 41 42 43 44 45 46 48 50 51 53 54 56 57 58 58 59 59 60 60 59 59 59 59 59 60 60 60 59 59 58 58 58 58 58 59 60 61 61 62 63 63 64 64 65 66 67 68 70 72 74 74 75
34 34 34 35 35 35 34 34 34 35 34 34 34 35 36 38 39 40 40 40 40 39 37 36 36 35 34 34 34 35 36 37 38 39 40 41 42 43 44 45 47 48 50 52 54 55 56 57 58 59 59 60 60 59 59 59 58 58 58 58 59 59 59 59 59 59 59 59 59 59 60 63 63 63 63 63 63 65 66 67 67 68 69 71 73 74 75 76
33 33 33 33 33 32 32 32 34 34 35 35 34 36 38 39 39 40 40 39 39 37 35 35 34 34 34 35 35 36 37 37 38 39 41 42 43 45 47 48 50 51 53 54 55 56 56 57 57 58 59 59 58 58 58 58 58 57 58 58 58 58 59 59 60 60 61 61 61 60 62 66 66 63 63 63 64 65 66 66 66 67 68 69 71 72 74 75
33 33 32 32 31 30 31 32 33 34 35 35 36 38 39 39 39 39 38 37 37 35 34 34 34 34 35 36 36 37 38 39 40 41 43 44 46 48 50 51 52 53 54 54 55 56 56 57 57 57 57 57 57 57 57 57 57 57 58 58 57 58 60 60 61 62 62 62 63 62 62 68 68 62 62 62 63 64 64 65 64 64 65 66 67 68 69 70
32 32 31 30 30 31 32 33 34 34 34 35 37 39 38 38 38 37 35 35 34 34 34 35 35 35 36 37 38 39 40 41 43 44 46 47 48 50 51 52 52 53 54 54 54 55 55 56 56 56 56 56 56 57 57 57 57 57 58 58 57 59 60 62 62 63 64 64 64 62 62 66 66 61 61 61 61 61 61 61 61 61 61 61 62 62 63 64
32 31 30 31 31 33 34 34 35 35 36 37 38 38 37 37 36 35 34 33 33 34 34 35 36 37 38 39 40 41 42 43 44 46 47 48 49 50 51 52 52 53 53 53 54 53 54 54 54 55 55 56 56 57 57 57 57 57 58 59 59 60 61 63 64 64 64 64 63 61 61 63 62 60 59 58 57 57 57 57 57 58 58 58 59 59 60 60
30 30 30 32 33 34 35 35 35 36 37 37 36 36 36 35 34 34 33 33 33 34 34 35 36 37 38 39 40 41 42 43 44 46 47 48 49 50 50 51 51 52 52 52 52 52 52 53 54 54 55 55 55 56 56 56 57 58 60 60 61 61 62 63 63 62 62 62 61 60 60 59 57 56 56 55 54 54 55 55 56 56 56 56 57 57 58 58
30 31 32 34 34 34 34 35 35 35 34 34 34 34 34 33 33 33 33 33 33 34 35 35 36 37 38 39 41 42 43 44 45 46 47 47 47 48 48 49 49 50 50 50 50 50 51 53 54 54 54 54 55 55 56 57 58 59 61 61 61 61 60 61 60 60 60 59 58 57 56 55 53 53 53 53 53 53 53 53 53 54 55 55 56 56 56 57
31 33 34 34 34 34 34 34 34 33 32 32 32 32 32 32 33 34 34 34 34 35 36 37 38 39 40 41 42 43 44 44 45 45 45 46 46 46 47 47 47 48 48 49 49 50 51 52 53 54 54 54 55 56 57 57 58 58 59 59 60 59 58 58 58 57 56 55 53 53 54 53 52 52 52 52 53 52 52 52 52 53 54 55 55 56 56 57
33 34 33 33 33 33 33 33 31 31 31 31 31 31 32 33 33 34 35 35 36 36 36 38 39 40 41 42 42 43 43 43 43 44 44 44 45 45 45 46 46 47 48 49 50 51 51 51 52 53 54 55 55 56 56 56 56 56 57 57 57 57 55 54 53 51 51 51 50 50 53 53 52 52 51 51 52 52 52 52 53 53 54 54 55 56 57 57
34 33 32 32 32 33 32 31 30 30 29 30 31 32 32 33 33 34 35 35 35 36 36 38 39 39 40 41 41 42 42 42 42 42 42 43 43 44 45 45 46 47 48 49 50 50 50 51 52 53 53 54 54 54 54 54 54 55 55 54 54 53 52 50 49 48 47 49 49 48 52 53 51 51 51 50 51 52 52 53 54 54 54 55 56 57 58 58
33 32 32 33 33 33 31 29 29 29 28 29 30 31 31 32 32 32 33 33 33 34 36 37 37 38 39 39 39 40 40 40 40 40 40 41 42 43 44 45 46 47 48 49 49 50 50 51 52 52 52 53 53 53 53 52 52 52 51 51 50 49 48 47 46 46 45 47 49 48 52 55 52 49 49 49 51 51 52 53 54 54 55 56 57 59 59 59
32 32 33 34 33 32 30 28 28 27 28 29 29 29 29 29 29 30 29 30 31 33 34 35 36 36 37 37 37 38 38 39 39 39 40 41 41 42 43 45 46 47 47 49 50 51 51 52 51 51 51 51 50 50 50 49 49 48 47 47 46 46 46 46 45 46 45 45 47 48 51 56 54 51 49 49 51 51 50 52 54 55 57 58 59 59 60 61
33 33 34 34 33 31 29 27 27 27 28 28 28 28 28 28 28 27 27 28 30 32 33 34 34 35 35 36 36 36 37 37 38 39 40 40 41 42 43 44 45 46 48 49 50 51 51 50 50 49 49 48 48 48 47 47 46 45 44 44 44 44 44 45 46 47 46 44 43 45 50 56 56 53 51 50 51 51 51 51 53 55 57 58 59 59 60 61
33 34 34 34 32 30 28 27 27 28 28 28 28 28 28 28 27 26 27 28 30 31 32 33 33 34 34 35 35 36 36 37 38 38 40 40 41 42 43 44 45 46 48 49 49 49 49 48 48 47 47 46 46 45 45 45 44 43 43 42 43 43 43 43 45 47 49 47 44 43 48 56 58 54 53 52 51 51 51 52 53 54 56 57 58 59 60 61
34 34 34 33 32 30 29 28 28 28 28 28 29 29 29 28 28 27 28 29 30 31 32 32 32 33 34 34 35 36 36 37 38 39 40 41 42 42 43 44 45 46 47 48 47 47 46 46 45 45 45 44 44 44 43 43 43 42 41 41 41 42 42 42 43 45 48 49 47 46 46 53 59 57 54 55 53 52 52 53 55 54 55 56 58 59 60 60
34 34 34 33 31 30 30 29 29 29 29 29 30 31 30 29 29 28 29 30 31 32 32 32 32 33 33 34 35 36 37 37 38 39 40 41 42 43 43 44 45 45 46 46 45 44 44 44 43 43 43 43 43 43 43 43 43 42 41 41 41 41 41 41 42 42 45 47 47 47 46 49 56 56 54 55 55 54 53 54 56 56 56 57 58 59 59 60
34 34 34 33 31 31 31 31 31 30 30 30 31 32 31 30 30 30 31 32 32 32 32 33 33 33 34 35 36 37 37 38 39 40 41 41 42 43 43 44 45 45 44 44 43 43 42 42 42 42 42 42 42 42 43 42 43 43 42 42 42 42 42 42 42 42 44 45 46 47 47 48 53 54 51 51 52 52 52 52 53 56 56 57 58 59 59 60
35 35 35 33 32 32 32 32 32 32 32 32 33 32 32 32 32 32 33 33 33 33 33 33 33 34 35 36 36 37 38 39 39 40 41 42 43 44 45 45 45 45 44 43 43 43 42 42 42 42 42 43 43 43 43 43 43 43 42 42 42 43 43 43 44 44 45 46 47 49 49 50 55 57 52 50 50 51 51 51 51 53 54 55 55 56 58 59
36 36 36 34 32 32 32 32 32 32 32 32 33 34 34 33 33 34 34 35 34 33 33 34 34 35 36 37 37 38 38 39 40 41 42 43 44 46 47 47 46 45 45 44 44 44 44 43 43 43 44 44 44 44 44 44 44 44 43 43 43 43 44 45 45 46 46 47 49 52 53 53 56 59 58 54 52 52 52 52 52 51 51 53 54 53 54 55
37 37 36 34 32 32 32 32 32 32 32 32 34 35 35 34 35 35 35 35 35 34 34 34 35 36 37 38 38 39 39 40 41 42 43 45 46 47 48 49 48 47 46 46 46 46 46 46 46 46 45 45 46 46 46 46 45 45 45 45 45 45 46 47 47 47 47 48 50 52 54 56 57 59 60 58 55 54 53 53 53 51 50 51 51 52 52 53
37 37 36 34 33 33 32 32 33 33 33 33 34 36 36 36 36 35 35 35 35 35 35 35 36 37 38 38 39 39 40 40 41 42 44 46 48 49 50 50 50 50 49 48 48 48 48 48 48 48 47 47 46 46 46 46 47 47 46 46 46 46 46 48 49 48 48 48 50 52 54 57 60 60 60 59 59 57 56 55 55 55 53 52 51 51 52 54
38 37 36 35 34 33 33 33 33 34 34 34 35 37 37 37 36 35 34 35 36 36 36 36 37 38 39 39 40 40 41 41 42 44 46 48 49 50 51 51 52 52 52 51 51 50 50 50 50 50 50 50 49 48 47 48 49 49 49 48 47 47 46 47 48 48 48 47 49 51 52 55 60 64 62 60 59 59 59 58 57 56 56 55 54 54 55 57
37 36 36 35 34 34 35 34 35 35 35 35 37 38 38 38 36 34 34 35 36 36 37 37 38 39 39 40 40 41 42 42 43 45 47 49 51 52 52 52 52 52 53 53 53 53 53 52 52 52 52 52 52 52 51 50 50 52 52 52 52 50 48 48 48 48 47 47 48 51 53 54 58 65 68 64 60 59 58 58 58 58 59 59 60 60 60 61
36 35 35 35 35 35 36 36 36 36 37 37 38 38 39 38 36 35 35 35 36 37 38 38 39 40 40 40 42 42 43 43 44 46 48 50 52 53 54 53 52 52 52 52 53 54 55 54 54 54 54 54 54 54 54 53 52 53 55 55 56 56 54 52 51 51 49 48 49 51 54 55 56 64 73 71 66 65 62 60 61 62 63 64 65 65 66 66
35 35 35 35 35 36 37 37 38 38 38 38 38 39 40 39 37 36 36 37 38 38 39 39 40 40 40 41 43 43 43 44 45 47 50 52 54 55 55 54 53 52 52 52 52 53 55 56 56 56 56 56 56 56 56 56 55 56 57 58 58 59 58 57 55 55 54 51 50 52 54 54 53 61 73 75 73 72 69 64 63 64 65 67 68 69 70 69
34 35 35 35 36 37 38 39 39 39 39 40 40 40 41 40 39 38 38 39 39 39 40 40 40 41 41 43 44 44 44 45 46 48 51 53 55 56 56 55 55 54 53 53 52 52 54 57 59 58 58 59 58 58 59 59 58 59 60 60 61 61 61 60 58 58 58 55 52 52 54 54 53 58 68 73 74 73 71 68 66 66 67 68 70 72 72 71
34 35 36 36 37 38 39 40 41 40 41 41 42 42 43 42 41 40 40 40 40 40 40 40 41 41 42 44 44 44 44 45 47 50 52 55 56 57 57 56 57 57 56 54 53 53 53 56 60 62 61 62 61 61 62 63 62 63 63 64 64 64 63 63 61 60 60 57 53 52 54 55 56 59 66 70 71 70 70 69 68 68 68 69 71 74 74 74
35 36 37 38 39 40 41 42 42 42 42 43 43 44 44 44 42 40 40 41 40 40 40 41 41 42 44 45 44 44 45 46 48 51 54 56 57 57 57 58 58 59 59 57 56 55 54 55 59 63 64 65 65 64 65 65 66 66 67 68 69 68 66 65 64 63 62 59 55 52 53 54 57 62 67 68 69 68 68 69 69 68 70 72 74 76 77 77
38 38 40 41 42 42 43 43 43 44 44 45 45 45 45 44 42 41 40 40 40 40 41 41 42 43 44 45 44 44 45 47 49 52 55 57 58 58 58 59 60 60 61 60 58 57 57 56 58 62 65 67 68 67 67 67 68 68 69 71 72 71 70 67 66 66 66 64 62 57 51 51 59 66 68 69 69 70 70 71 71 71 73 75 77 78 79 80
40 41 42 43 44 44 44 45 45 46 46 47 46 46 46 45 43 42 41 40 40 40 41 42 43 44 45 44 44 44 46 48 50 54 56 57 57 58 59 60 61 62 62 62 61 60 60 60 60 63 66 68 70 71 70 69 70 70 71 73 74 74 73 70 67 68 69 69 70 67 56 54 66 73 71 71 74 74 75 74 74 75 76 76 77 78 79 79
44 45 45 46 46 46 46 47 47 48 48 47 47 46 46 45 44 43 41 40 40 41 42 43 45 45 45 44 44 45 47 49 52 55 57 57 57 58 60 61 63 64 64 64 64 63 63 63 62 64 66 69 71 73 73 72 72 73 74 75 77 77 76 74 70 70 71 72 76 76 65 62 73 80 76 77 79 78 78 77 77 78 78 78 78 79 79 79
48 48 48 48 48 47 48 48 49 50 49 47 47 47 46 45 44 43 41 41 41 42 43 44 46 46 44 44 44 45 47 51 55 58 58 58 59 59 61 63 64 66 66 66 66 66 66 66 66 65 67 69 71 73 73 73 73 75 76 77 78 78 78 77 75 74 74 75 79 81 73 69 77 82 81 82 82 80 80 81 81 82 82 82 81 80 80 80
50 51 50 50 49 49 49 49 50 50 49 47 47 47 47 46 44 43 41 41 41 43 44 45 46 46 44 44 45 45 48 52 56 59 59 59 60 61 63 64 66 67 68 68 68 68 69 70 69 67 67 69 71 73 73 73 73 75 76 77 78 78 78 78 79 79 78 78 82 84 80 77 79 82 83 84 83 82 84 85 85 85 84 83 82 81 80 80
52 52 52 52 51 50 50 50 50 50 49 47 48 48 47 46 44 43 41 41 42 43 45 46 46 45 44 44 45 47 50 52 56 59 60 60 61 63 64 66 68 69 70 70 70 70 71 73 74 71 69 70 71 72 72 72 72 73 75 76 77 78 79 80 82 83 83 82 83 86 87 83 82 85 87 87 87 88 89 88 87 86 84 83 82 81 81 81
53 53 53 53 52 51 50 50 50 50 49 48 48 47 46 45 44 43 42 42 43 44 46 47 46 45 45 45 47 50 52 54 56 58 60 60 62 63 65 67 69 71 72 73 73 72 72 74 77 76 75 75 75 75 75 73 73 75 76 77 79 81 82 84 85 87 88 87 85 88 92 88 84 88 91 91 93 92 90 88 86 85 83 82 82 82 83 84
54 54 54 54 53 51 50 50 50 49 49 49 48 46 45 45 44 43 43 43 44 45 47 46 45 44 46 47 49 53 55 56 57 59 60 61 62 64 66 68 70 72 73 74 75 75 74 75 77 77 77 79 80 80 79 77 76 76 77 79 82 84 85 87 89 91 93 92 88 87 92 91 89 91 93 92 92 90 87 85 84 83 82 82 83 85 87 88
55 55 55 54 53 51 50 49 49 49 49 48 46 45 44 44 44 44 44 44 45 46 47 46 44 45 47 49 51 54 56 57 59 60 61 62 63 65 67 69 71 73 74 75 76 77 77 76 77 77 76 79 80 81 80 79 77 77 78 79 82 84 87 89 91 93 95 94 89 87 90 93 94 95 94 92 89 85 83 83 83 84 84 83 84 87 89 90
55 55 54 53 51 50 49 48 49 49 49 47 44 43 44 44 44 45 45 45 46 46 46 45 45 46 48 50 53 56 57 58 60 61 62 63 65 66 68 70 72 73 74 76 78 79 78 77 77 77 76 78 81 80 79 79 78 78 80 82 82 84 87 89 91 93 94 93 91 90 91 93 95 95 92 90 88 85 84 85 85 86 85 85 86 89 91 93
54 53 52 51 50 49 48 48 48 48 47 45 43 43 43 43 45 45 45 46 47 46 45 46 47 48 49 52 55 57 58 58 59 60 61 62 64 66 68 70 72 73 74 76 78 79 79 78 78 77 75 77 81 80 79 79 79 80 82 84 84 85 88 89 90 91 92 92 93 94 95 95 95 93 90 89 88 88 88 89 89 89 88 89 91 93 95 98
52 51 50 50 48 48 48 48 48 47 45 43 42 42 43 44 45 46 46 47 47 46 45 46 47 49 52 55 57 58 59 59 60 61 61 62 64 67 69 70 71 73 75 76 77 79 80 79 80 79 76 76 80 80 80 80 81 82 83 85 86 87 89 90 90 91 92 93 95 97 97 96 94 93 91 91 91 91 90 91 92 92 93 94 96 97 100 102
50 49 49 48 47 47 47 46 45 44 43 42 42 42 43 45 45 45 46 47 46 46 46 46 48 51 54 56 57 58 59 60 61 61 62 64 67 69 70 70 72 74 75 77 78 79 81 81 81 80 78 77 80 81 81 81 83 84 86 87 88 90 89 89 90 91 93 95 97 98 97 95 93 92 91 91 91 91 92 93 95 96 96 98 99 101 103 104
48 49 48 47 47 46 45 44 43 42 41 42 42 43 44 45 44 44 45 46 46 45 46 47 50 53 55 57 57 58 59 60 61 62 64 67 69 69 70 72 74 75 76 78 79 80 81 81 81 82 80 79 81 83 83 84 85 86 87 89 90 89 88 88 90 93 96 98 99 98 96 94 93 92 91 91 91 92 93 96 98 97 97 98 99 103 106 107
Wind_Direction
220 223 226 228 231 233 236 238 240 242 244 247 249 252 255 259 263 266 267 269 270 272 273 274 275 276 277 278 280 282 284 286 287 287 287 287 286 285 283 281 280 278 276 275 272 269 267 266 266 266 267 267 267 269 269 270 270 270 270 270 271 271 271 270 269 268 267 267 266 266 266 266 266 265 265 264 264 264 264 265 266 266 267 267 267 266 266 266
224 226 229 231 233 235 237 239 242 244 247 250 252 255 259 262 264 265 267 269 271 272 273 274 275 276 277 279 281 282 284 285 285 285 286 285 284 282 280 279 278 277 278 277 275 272 269 267 266 265 266 266 266 267 268 268 268 268 268 269 269 270 270 270 270 269 268 268 268 268 267 267 267 267 267 266 265 264 264 264 264 265 266 266 266 265 265 265
228 230 233 234 236 237 239 242 245 247 250 252 255 258 260 262 264 265 267 269 270 271 272 274 275 277 278 280 281 283 284 284 284 284 283 282 281 280 278 277 277 278 279 279 279 277 274 272 270 269 268 269 269 270 270 270 270 269 269 269 269 269 270 270 270 269 269 269 269 269 269 268 268 267 267 267 266 266 265 264 264 265 266 266 266 265 265 264
229 232 235 237 239 241 244 246 248 251 253 255 257 259 261 263 264 265 266 267 268 269 271 273 275 277 279 280 281 282 283 283 283 282 281 280 279 278 278 278 278 279 280 280 280 280 279 277 276 274 273 273 272 272 272 273 273 272 271 270 270 270 270 270 270 270 270 270 271 271 271 270 270 269 269 268 268 267 267 266 266 265 266 266 266 265 265 265
230 234 237 240 243 245 247 249 251 253 254 256 258 260 261 262 263 264 265 266 267 269 271 273 275 277 279 280 281 282 282 282 281 280 279 278 277 277 278 279 280 281 281 282 281 281 280 279 278 277 277 276 275 275 275 274 274 274 274 273 273 273 273 273 272 272 272 272 272 272 272 272 272 271 271 270 269 269 269 268 268 267 266 266 265 265 265 265
229 234 238 241 244 246 248 250 252 254 255 255 255 257 258 259 261 263 264 266 268 270 273 275 277 278 279 280 280 280 280 280 279 278 276 276 276 277 278 279 280 281 281 281 280 279 278 277 277 277 277 276 276 276 277 277 276 276 277 277 276 276 276 275 275 275 275 274 274 273 273 273 273 272 271 270 270 269 269 269 268 268 267 266 266 265 265 265
230 234 238 241 244 246 249 251 253 255 256 256 256 257 258 259 261 263 266 268 271 273 276 278 279 279 279 279 278 277 276 276 276 276 276 276 277 278 278 279 279 279 279 279 278 278 277 277 277 277 278 278 278 279 280 280 280 280 280 280 280 280 279 278 278 277 277 276 276 275 274 274 273 273 272 271 270 270 269 269 269 268 268 267 266 265 264 264
231 234 238 242 245 248 251 253 255 256 258 259 261 263 265 267 268 269 271 272 275 278 280 280 281 280 278 277 274 272 271 272 274 275 276 278 279 279 280 279 279 279 279 280 280 280 280 280 280 280 281 281 282 282 283 284 284 284 284 284 283 282 281 281 280 280 280 279 278 277 276 275 275 274 273 272 272 271 270 269 270 270 269 269 268 267 265 264
231 234 238 242 246 250 252 254 256 257 258 260 262 265 268 270 271 272 274 277 280 282 282 281 281 279 277 275 273 271 271 272 274 276 278 280 281 281 281 282 282 282 282 283 283 283 283 283 284 284 285 285 285 286 286 287 287 287 287 286 286 285 285 284 284 284 284 283 283 282 281 280 279 278 277 276 275 273 272 271 270 270 270 270 270 269 267 266
230 234 238 243 248 251 252 254 256 257 259 261 263 265 266 267 269 272 276 280 282 282 281 281 279 277 276 274 273 274 274 275 276 278 280 282 283 284 284 284 285 286 286 287 287 287 287 287 287 288 288 288 289 289 289 289 289 289 289 289 290 290 289 289 289 288 288 287 287 286 285 284 282 280 279 278 278 277 276 274 272 272 271 271 271 270 270 268
231 235 239 243 247 249 252 254 256 258 260 262 264 265 266 267 270 274 278 280 280 280 279 278 276 275 274 273 273 275 277 278 279 280 282 284 285 286 286 287 287 288 288 288 288 288 288 289 289 289 290 290 290 290 291 291 291 291 291 291 291 291 291 290 290 289 289 288 287 287 287 285 283 281 281 280 280 279 277 276 274 273 273 272 272 271 271 270
233 237 240 242 245 248 251 252 254 257 260 263 264 265 266 270 274 278 280 280 279 279 278 275 274 273 273 275 276 278 279 281 281 282 284 285 286 287 287 288 288 288 288 288 289 289 290 290 290 290 290 291 291 291 291 292 292 292 291 291 291 291 290 290 290 290 289 289 289 288 288 286 284 283 283 283 282 280 278 277 276 275 274 273 272 272 272 271
233 236 238 240 243 245 247 249 252 256 260 262 263 265 270 275 278 279 280 279 279 279 276 274 272 273 276 278 279 280 281 282 283 284 285 286 286 287 287 288 288 289 289 290 290 290 291 291 291 291 291 292 292 292 292 293 293 292 292 291 291 291 290 290 290 290 290 290 289 289 288 286 285 286 285 284 282 281 280 279 278 277 275 274 274 273 273 273
232 234 236 238 239 240 243 246 251 255 258 260 263 268 275 278 279 280 280 280 279 277 274 272 271 271 273 275 278 280 281 283 284 285 286 287 287 288 288 289 289 290 290 291 291 291 292 292 292 293 293 293 293 294 293 293 293 292 292 291 291 290 290 291 291 291 291 291 290 290 288 286 287 287 286 284 282 281 281 280 279 278 277 276 276 275 275 274
230 232 234 235 237 238 241 245 250 254 257 261 266 273 277 279 280 281 281 279 276 275 274 273 273 273 273 275 278 280 282 284 286 287 287 288 289 290 291 291 291 292 292 292 293 293 293 293 294 294 294 294 294 294 294 293 293 292 292 292 292 292 293 293 293 293 292 291 291 290 288 286 287 287 285 284 283 282 281 280 280 279 278 278 277 276 275 275
229 230 232 234 237 240 243 247 252 255 259 265 271 275 277 278 280 280 279 277 275 274 274 275 276 276 277 279 282 284 285 286 287 288 289 290 290 291 292 292 292 292 293 293 293 294 294 294 294 295 295 295 294 294 294 294 294 294 294 294 294 294 293 293 293 292 292 291 290 289 287 286 286 286 285 284 283 283 282 282 281 281 280 279 278 278 277 276
227 229 231 234 238 243 247 251 255 259 265 270 274 275 277 278 279 279 278 276 275 274 276 278 279 281 283 284 286 287 288 288 289 290 290 291 291 292 292 292 292 292 293 293 294 295 295 296 297 297 296 296 296 296 296 296 296 295 295 294 294 294 293 293 292 292 291 290 289 288 286 286 285 285 284 283 282 282 281 281 281 281 280 280 279 278 277 277
226 229 233 237 242 247 251 254 259 265 270 273 275 276 277 277 276 276 275 275 274 275 278 280 282 284 286 287 288 288 289 290 291 292 292 293 293 293 293 293 293 294 294 295 297 297 298 298 299 299 299 298 298 297 297 297 296 295 295 295 294 294 293 293 292 291 291 290 289 289 287 286 285 285 284 283 283 282 281 280 279 279 278 278 278 277 277 277
228 232 237 241 246 250 253 258 264 270 273 275 276 277 276 276 275 274 273 274 275 277 280 283 284 285 286 288 289 291 292 293 293 294 294 294 294 294 295 296 297 298 299 300 301 301 301 300 300 300 299 299 299 298 298 297 297 296 296 295 294 294 293 292 292 291 290 289 289 288 287 286 286 285 284 284 283 283 282 281 280 279 278 278 278 278 277 277
230 235 240 244 247 251 255 261 268 271 274 276 277 277 275 274 274 273 275 277 279 281 283 284 285 287 288 291 293 293 294 295 294 294 295 295 296 297 299 300 300 301 302 302 302 302 302 302 302 301 301 301 301 300 300 299 299 298 297 296 295 294 293 292 291 290 289 289 289 288 287 285 285 285 285 285 284 284 283 283 282 282 281 281 281 280 280 280
234 238 242 246 250 254 259 265 269 271 274 276 276 275 274 274 275 276 278 281 283 284 285 286 287 289 291 293 294 294 294 294 294 295 297 298 299 300 301 301 302 303 304 304 304 304 304 304 304 304 304 303 303 302 301 300 299 298 297 296 295 294 293 292 291 290 290 290 290 290 289 287 285 285 285 285 285 284 284 284 284 284 283 282 282 282 283 283
237 241 244 248 252 257 263 267 270 273 275 276 275 276 276 278 280 281 283 286 287 287 288 289 290 291 292 293 294 294 295 296 297 298 299 300 301 302 302 304 305 307 308 308 308 308 307 307 306 305 304 304 303 302 301 301 300 299 298 297 296 296 295 294 292 291 290 290 291 293 291 289 288 287 285 285 284 283 282 283 283 283 282 281 281 282 283 283
238 242 247 251 255 260 264 267 270 274 275 276 277 279 281 283 286 288 290 291 291 291 292 292 293 294 295 297 297 298 298 299 300 301 302 302 303 304 306 308 309 310 310 310 310 309 308 307 306 305 305 304 303 303 303 303 302 301 300 299 298 297 297 297 296 294 291 289 290 291 291 289 288 288 286 284 284 283 283 282 282 281 281 281 281 281 281 281
240 244 249 253 258 261 264 267 271 273 274 277 279 281 285 289 291 292 293 295 296 296 297 297 298 299 299 300 300 301 302 302 303 303 304 305 306 307 310 311 312 312 312 311 311 310 309 308 307 306 306 305 305 305 305 306 306 305 304 303 302 300 299 298 298 297 295 293 291 290 290 289 288 287 287 286 285 285 285 285 283 282 283 283 282 281 280 280
242 246 251 255 259 262 263 268 272 274 276 279 282 285 288 292 293 294 296 299 301 301 301 301 302 302 302 303 303 304 305 305 305 306 306 308 309 311 313 314 314 314 313 312 311 310 309 308 308 308 308 308 308 308 308 308 308 307 307 306 304 303 301 299 298 297 297 297 296 294 292 292 291 291 291 291 290 290 289 288 287 286 285 284 283 282 282 281
245 249 252 256 260 260 262 267 272 274 278 281 283 287 290 293 295 297 299 302 304 304 304 305 305 304 305 306 306 307 307 307 307 308 309 310 312 313 314 315 315 315 314 313 312 311 310 309 310 310 310 311 311 311 310 310 309 309 308 308 307 306 305 304 302 301 299 299 300 298 296 294 293 293 295 295 295 295 293 292 291 289 287 285 284 283 283 282
247 251 254 257 259 259 262 267 271 275 279 282 285 288 292 295 297 299 301 304 305 306 307 308 308 308 309 309 309 309 309 309 310 311 311 312 314 315 315 316 317 317 316 315 313 313 313 313 313 313 313 313 313 313 312 312 311 310 310 309 308 307 306 305 304 303 302 301 300 299 297 295 293 292 293 294 295 295 294 293 292 290 289 288 287 285 285 284
248 252 255 258 259 260 263 267 271 275 280 284 287 291 294 297 299 300 303 305 306 308 309 309 310 311 311 311 311 311 311 311 312 312 313 314 315 316 318 318 319 319 318 318 317 317 317 316 316 316 316 316 315 315 314 313 312 311 310 309 308 307 306 305 304 303 301 301 300 298 297 297 295 295 295 295 296 296 296 296 295 294 294 293 291 290 289 287
249 254 257 259 260 261 265 270 273 276 281 286 290 293 296 298 300 302 304 305 306 309 310 311 312 313 313 313 312 312 312 312 313 313 314 316 317 319 320 321 321 321 321 322 322 321 320 320 320 320 320 320 319 318 317 315 314 313 312 311 310 309 308 306 305 304 303 302 301 300 299 298 298 298 299 299 298 298 298 297 296 296 297 297 296 295 293 291
251 255 259 262 262 263 268 272 275 278 282 288 292 296 298 300 301 303 304 305 307 309 311 312 313 314 314 314 313 313 313 314 314 315 316 318 319 321 322 322 323 324 324 325 324 324 324 324 324 324 323 322 321 320 319 318 317 316 315 314 313 312 310 309 307 306 305 305 304 304 303 302 300 299 299 299 297 296 294 294 293 293 293 293 294 295 294 293
252 257 261 264 264 265 270 274 277 279 284 290 294 298 300 301 301 303 304 305 308 310 311 312 313 314 314 314 314 314 314 315 316 317 318 319 321 322 324 325 325 326 326 326 326 327 326 326 325 324 323 323 322 321 320 319 318 316 315 315 314 313 312 310 309 309 309 309 308 306 306 304 302 299 298 298 297 295 294 293 293 293 292 291 291 291 292 293
255 260 263 265 266 268 273 276 278 281 285 290 294 298 301 302 302 302 304 306 309 310 311 312 313 314 314 314 314 315 315 316 317 318 318 320 321 323 325 326 326 327 328 328 328 328 327 326 326 325 325 324 323 322 321 320 319 318 316 315 313 312 312 310 310 310 309 309 308 307 307 306 304 303 301 300 299 298 298 297 297 297 296 295 293 292 292 292
258 261 264 266 268 272 276 279 281 282 285 288 292 297 301 303 302 302 303 306 309 311 311 311 312 313 313 313 314 316 316 317 317 318 319 320 322 323 325 326 326 328 329 330 330 329 328 327 326 326 325 325 325 324 323 322 321 319 317 316 314 312 312 311 309 309 308 309 308 308 309 310 309 308 305 304 304 303 303 304 304 303 302 300 298 297 295 294
259 262 265 267 271 275 279 283 284 285 286 288 292 297 302 304 302 302 303 306 309 310 310 311 311 312 312 313 315 316 317 317 317 317 318 320 321 323 324 325 326 328 329 330 330 329 328 326 326 325 325 325 325 324 323 323 322 320 318 317 316 315 314 313 312 311 311 312 311 310 311 311 312 310 307 307 308 307 308 309 309 307 305 303 301 300 298 297
261 264 266 269 273 278 282 285 287 288 289 291 293 297 302 304 303 302 303 305 307 309 309 309 310 311 312 313 315 316 316 317 317 317 318 320 321 323 323 324 325 326 328 329 330 329 328 326 325 325 325 325 325 324 323 322 322 321 319 318 317 316 316 316 315 314 314 315 313 312 311 310 310 308 306 306 308 309 310 311 309 307 305 303 302 300 298 297
263 265 267 271 275 279 282 285 287 289 291 293 295 298 301 304 303 302 302 303 305 307 308 309 310 310 311 313 314 315 316 316 316 316 318 319 321 322 322 323 324 325 327 328 329 330 328 327 325 325 325 324 324 324 323 322 323 322 320 319 318 317 317 317 317 315 315 316 314 312 311 309 308 305 302 303 306 307 309 309 308 305 303 302 300 297 296 295
264 266 268 271 275 278 281 284 287 289 291 293 295 298 300 303 303 301 301 302 303 305 306 308 309 310 311 312 313 314 315 315 315 316 317 319 320 321 321 322 323 324 326 327 328 329 329 328 325 325 325 324 324 325 323 323 324 323 322 320 319 319 318 317 317 316 315 316 315 314 312 310 308 305 301 301 303 305 306 306 304 302 301 299 296 294 293 292
265 266 269 271 274 277 280 283 286 289 290 292 295 297 299 302 302 301 300 301 302 304 306 307 308 309 310 311 312 313 314 314 314 315 317 318 319 320 320 321 322 323 324 325 327 327 328 328 326 325 325 324 324 324 324 324 324 323 323 321 320 319 319 318 318 317 316 316 315 314 312 312 311 305 300 300 301 303 302 301 299 299 298 296 293 292 292 291
267 268 270 272 275 277 280 283 287 290 291 292 294 296 299 301 301 300 300 301 302 304 305 306 308 309 310 310 311 312 313 313 313 314 316 317 318 319 319 320 320 322 323 324 325 326 326 327 326 325 324 324 324 324 324 324 323 324 323 322 320 320 319 319 320 319 317 316 315 312 313 316 312 304 300 301 302 301 300 298 298 298 296 294 293 292 292 292
268 270 271 274 276 279 281 284 288 290 291 292 294 296 299 301 300 299 300 301 302 303 305 306 308 309 310 310 311 312 313 313 312 313 315 316 317 317 317 318 319 320 322 323 324 325 325 326 326 325 324 324 324 323 323 323 324 324 323 322 321 320 319 319 320 320 318 317 315 312 315 320 312 304 304 305 304 302 302 301 301 299 297 296 296 295 294 293
269 271 273 275 277 280 282 285 288 290 291 292 294 297 299 300 298 298 300 301 302 303 304 306 308 309 310 309 311 312 313 312 312 313 314 315 316 316 316 317 318 319 321 322 323 324 324 325 325 325 325 325 324 323 323 324 324 324 323 322 321 320 319 319 320 319 317 317 314 312 318 322 312 307 309 309 306 306 306 305 304 302 300 299 298 297 296 295
269 272 275 277 279 281 283 285 287 289 290 292 295 297 299 298 297 298 300 300 301 302 303 306 308 309 309 309 311 312 312 312 312 312 314 315 315 315 315 316 317 318 320 321 322 322 323 324 324 324 325 325 323 323 322 323 324 324 323 321 320 319 318 318 319 317 316 316 313 313 318 318 311 310 311 309 308 309 309 307 306 305 304 303 302 301 300 299
269 272 275 277 279 281 283 284 286 288 290 292 296 297 297 296 295 297 299 300 301 301 303 306 308 308 308 308 310 311 311 311 312 312 313 314 314 314 314 315 316 318 319 321 321 321 322 323 322 323 325 324 323 322 322 323 324 323 321 320 318 317 317 317 317 316 316 316 313 314 316 315 313 312 311 310 311 312 311 310 309 308 308 307 306 306 305 304
270 272 275 277 279 281 282 284 285 287 290 293 296 296 295 294 295 296 298 299 300 301 303 306 307 307 307 309 310 310 310 311 312 312 313 313 313 313 313 314 316 318 319 319 320 321 322 322 322 323 325 324 322 320 320 322 322 321 319 318 317 316 316 317 316 316 316 315 315 316 316 316 317 315 312 313 314 314 313 313 312 311 310 310 309 309 308 307
270 273 275 276 278 280 282 283 284 287 290 293 294 294 293 293 294 296 297 299 299 301 303 305 306 306 307 309 310 310 311 311 311 311 312 312 312 312 313 315 317 318 318 318 319 320 322 322 322 324 325 324 323 321 321 322 322 321 320 318 317 317 317 317 317 316 315 315 318 318 316 317 319 315 314 316 316 315 315 313 312 312 311 311 311 311 310 308
270 272 274 276 278 280 282 283 284 288 290 292 292 292 291 291 293 295 297 299 300 301 303 304 305 306 307 309 309 310 311 311 311 311 311 311 312 313 314 316 317 317 317 318 318 320 322 322 322 323 325 324 323 322 322 323 323 321 320 318 317 318 318 318 318 317 316 316 319 319 316 318 318 315 315 316 315 314 314 313 313 313 313 313 313 313 312 311
269 271 273 275 278 280 281 283 286 288 289 289 290 289 289 291 293 296 298 299 300 302 303 303 304 305 307 308 309 310 311 312 312 312 312 312 313 314 316 316 316 316 317 317 318 319 321 322 322 323 324 323 321 320 321 322 322 321 319 317 317 318 318 318 318 316 315 317 319 319 317 317 317 316 316 316 314 314 314 314 315 314 314 314 314 313 312 311
269 271 273 275 277 279 282 284 285 286 286 287 287 287 289 291 294 296 298 299 300 302 303 303 304 306 308 309 309 309 311 312 312 312 313 314 314 315 315 315 315 316 317 317 318 319 320 321 321 322 324 322 319 319 320 321 321 320 318 317 318 318 318 317 317 316 316 317 318 318 317 317 316 316 316 316 316 317 317 316 315 314 314 314 314 314 313 312
269 271 273 275 277 280 282 283 283 283 284 285 285 286 289 291 294 296 298 298 300 301 302 303 305 307 308 309 309 309 311 311 311 312 313 313 313 314 314 315 315 316 317 317 318 319 320 321 321 322 323 322 319 319 320 320 320 320 318 318 318 318 317 317 316 316 317 318 318 317 317 317 316 317 318 318 318 319 318 317 316 316 316 317 317 316 315 315
270 271 273 275 278 279 280 281 281 281 283 284 285 287 290 292 295 296 297 298 300 302 303 304 306 308 308 309 309 310 311 312 312 312 312 312 312 313 314 315 315 316 317 317 318 319 320 321 321 321 323 321 319 319 320 321 320 319 318 318 318 318 317 317 317 317 317 317 317 317 317 318 318 319 319 319 319 319 318 318 318 318 319 319 319 318 318 317
270 272 273 275 277 277 278 278 279 280 282 284 286 288 291 293 295 295 295 297 300 303 304 306 307 308 308 309 310 311 311 312 312 312 312 312 313 314 315 316 316 317 317 318 319 320 321 321 321 321 322 322 320 320 321 321 320 319 319 319 319 318 318 318 318 318 318 318 318 317 318 319 319 319 319 319 319 319 319 319 319 320 320 321 320 320 319 317
270 272 273 274 275 275 275 276 278 280 282 285 287 289 291 293 293 293 295 299 302 304 305 306 308 308 308 309 310 311 311 311 312 312 313 313 314 315 316 317 317 318 318 319 320 321 321 321 321 321 322 322 321 320 321 321 319 319 319 319 318 318 318 318 318 318 318 318 318 318 319 319 319 319 320 320 320 320 320 320 320 320 320 320 320 320 320 318
Height
10716 10719 10723 10726 10727 10729 10731 10733 10735 10737 10739 10739 10740 10741 10742 10742 10742 10743 10743 10743 10742 10742 10741 10740 10739 10738 10738 10736 10735 10734 10734 10734 10731 10728 10727 10726 10725 10724 10722 10721 10720 10719 10717 10717 10716 10715 10714 10714 10714 10713 10712 10711 10710 10709 10709 10708 10707 10706 10704 10702 10699 10698 10698 10697 10697 10696 10695 10695 10694 10693 10690 10688 10687 10686 10686 10686 10684 10682 10680 10677 10676 10674 10674 10674 10675 10675 10673 10672
10716 10719 10721 10723 10725 10727 10729 10731 10733 10735 10736 10737 10738 10738 10739 10740 10740 10740 10740 10740 10739 10738 10737 10736 10735 10735 10734 10733 10731 10730 10730 10730 10727 10725 10723 10722 10721 10720 10719 10718 10716 10715 10714 10713 10713 10712 10710 10709 10709 10709 10708 10706 10705 10705 10705 10704 10703 10702 10700 10697 10695 10694 10693 10692 10692 10690 10689 10688 10688 10687 10685 10683 10681 10679 10679 10678 10677 10676 10674 10672 10670 10669 10668 10668 10668 10667 10666 10664
10715 10717 10718 10720 10722 10725 10727 10729 10731 10732 10733 10734 10735 10736 10736 10737 10737 10737 10737 10736 10735 10734 10733 10732 10731 10730 10729 10729 10727 10726 10725 10725 10723 10721 10720 10718 10717 10716 10715 10714 10713 10712 10711 10710 10709 10708 10707 10706 10705 10705 10704 10702 10701 10700 10699 10698 10698 10696 10694 10692 10691 10690 10688 10687 10685 10684 10683 10682 10681 10680 10677 10676 10675 10673 10672 10671 10670 10668 10666 10665 10664 10663 10662 10662 10661 10660 10659 10656
10712 10713 10714 10717 10720 10723 10726 10728 10729 10730 10731 10732 10733 10733 10734 10734 10733 10733 10733 10732 10732 10731 10729 10728 10727 10726 10726 10725 10723 10722 10721 10720 10719 10717 10716 10715 10714 10712 10711 10710 10710 10709 10707 10707 10706 10704 10703 10702 10701 10700 10700 10698 10696 10695 10695 10693 10692 10690 10688 10686 10685 10684 10683 10680 10678 10677 10677 10676 10674 10673 10670 10668 10667 10666 10665 10663 10662 10659 10656 10656 10656 10656 10655 10654 10653 10652 10651 10649
10710 10711 10713 10716 10718 10722 10724 10725 10726 10727 10729 10730 10730 10730 10730 10729 10729 10729 10729 10728 10727 10727 10726 10725 10724 10723 10722 10721 10720 10718 10717 10716 10715 10714 10712 10711 10710 10709 10708 10707 10706 10705 10704 10703 10702 10701 10700 10698 10697 10696 10696 10694 10691 10690 10689 10688 10686 10683 10681 10680 10679 10678 10676 10673 10671 10670 10669 10669 10667 10666 10663 10660 10659 10658 10656 10655 10653 10651 10649 10648 10647 10646 10645 10645 10645 10644 10643 10641
10708 10710 10712 10714 10716 10719 10721 10722 10723 10724 10725 10726 10726 10726 10726 10726 10726 10725 10725 10724 10723 10723 10722 10722 10720 10719 10718 10717 10716 10714 10713 10712 10711 10710 10709 10708 10707 10706 10705 10704 10703 10702 10701 10700 10699 10698 10696 10694 10692 10691 10691 10688 10686 10684 10683 10681 10680 10677 10674 10673 10672 10671 10669 10666 10663 10662 10661 10660 10659 10658 10656 10653 10651 10649 10647 10645 10644 10643 10641 10639 10637 10635 10634 10635 10635 10635 10634 10632
10707 10709 10711 10712 10714 10716 10717 10719 10720 10720 10721 10721 10721 10721 10721 10722 10722 10722 10721 10720 10720 10720 10719 10718 10717 10716 10715 10714 10713 10711 10710 10709 10707 10706 10705 10705 10704 10703 10702 10701 10700 10699 10698 10696 10695 10694 10692 10690 10688 10686 10685 10683 10680 10678 10677 10674 10672 10670 10668 10666 10664 10663 10661 10658 10656 10654 10653 10652 10651 10650 10648 10646 10643 10641 10638 10635 10635 10636 10633 10630 10627 10625 10623 10623 10624 10624 10624 10623
10706 10708 10709 10710 10711 10713 10715 10716 10716 10717 10717 10717 10717 10717 10717 10718 10718 10718 10717 10717 10717 10716 10716 10714 10713 10712 10711 10710 10710 10709 10707 10706 10704 10703 10702 10701 10700 10699 10698 10697 10696 10695 10694 10692 10691 10689 10687 10685 10683 10681 10679 10677 10674 10672 10671 10668 10664 10662 10661 10658 10656 10655 10652 10650 10648 10647 10645 10644 10643 10642 10640 10638 10635 10633 10629 10626 10627 10627 10625 10622 10619 10616 10613 10611 10611 10612 10612 10612
10704 10706 10707 10708 10709 10710 10712 10713 10713 10714 10714 10715 10715 10715 10715 10715 10715 10714 10714 10714 10713 10713 10712 10711 10710 10709 10708 10707 10706 10705 10704 10703 10701 10700 10699 10698 10697 10696 10694 10693 10692 10690 10689 10687 10686 10684 10682 10679 10677 10675 10673 10670 10668 10666 10664 10663 10659 10656 10654 10650 10648 10646 10644 10642 10640 10639 10637 10635 10633 10632 10631 10628 10626 10624 10621 10618 10619 10618 10616 10615 10612 10609 10605 10602 10600 10600 10600 10600
10702 10704 10705 10706 10707 10708 10709 10710 10711 10711 10712 10712 10713 10713 10713 10712 10712 10712 10711 10711 10710 10709 10708 10707 10706 10705 10705 10704 10703 10702 10701 10700 10698 10697 10696 10695 10693 10692 10691 10689 10687 10686 10684 10682 10680 10678 10676 10674 10671 10669 10666 10663 10662 10660 10657 10656 10653 10650 10647 10643 10640 10638 10636 10634 10632 10630 10628 10627 10626 10624 10621 10618 10615 10615 10612 10610 10610 10608 10606 10605 10603 10601 10598 10594 10591 10589 10588 10588
10700 10702 10703 10704 10705 10706 10707 10708 10708 10709 10709 10710 10710 10710 10710 10710 10710 10709 10709 10708 10707 10706 10705 10704 10703 10703 10702 10701 10700 10699 10697 10696 10695 10694 10693 10691 10690 10688 10686 10685 10683 10681 10679 10677 10675 10672 10670 10668 10666 10663 10660 10658 10656 10653 10651 10648 10646 10644 10641 10637 10634 10631 10628 10626 10624 10622 10620 10619 10618 10617 10614 10608 10605 10606 10604 10603 10601 10598 10596 10594 10593 10591 10589 10586 10583 10580 10578 10577
10698 10700 10701 10702 10703 10705 10705 10706 10706 10707 10707 10707 10708 10708 10707 10707 10707 10707 10706 10705 10704 10703 10702 10701 10701 10700 10698 10697 10696 10695 10694 10693 10692 10691 10689 10687 10686 10684 10682 10680 10678 10677 10674 10672 10670 10667 10665 10662 10660 10657 10654 10652 10650 10647 10644 10641 10639 10637 10634 10631 10629 10625 10622 10620 10617 10614 10612 10611 10609 10609 10606 10596 10594 10597 10596 10594 10592 10588 10585 10583 10583 10582 10579 10577 10573 10571 10569 10567
10697 10698 10700 10701 10702 10703 10704 10704 10704 10705 10705 10705 10705 10705 10705 10705 10705 10704 10703 10702 10700 10700 10699 10698 10697 10696 10695 10694 10693 10691 10690 10689 10688 10687 10685 10683 10682 10680 10678 10676 10674 10672 10669 10667 10664 10662 10659 10657 10654 10651 10648 10646 10643 10640 10638 10635 10633 10630 10627 10625 10623 10619 10615 10612 10610 10608 10605 10604 10601 10601 10599 10586 10582 10589 10588 10584 10581 10578 10575 10573 10572 10571 10569 10567 10565 10563 10561 10559
10696 10697 10698 10699 10700 10701 10702 10702 10703 10703 10703 10703 10703 10703 10703 10703 10702 10701 10700 10699 10697 10697 10696 10695 10694 10693 10692 10691 10690 10688 10687 10685 10684 10683 10681 10679 10677 10675 10673 10671 10669 10667 10664 10662 10659 10656 10654 10650 10647 10645 10642 10639 10636 10634 10631 10629 10626 10623 10620 10618 10617 10613 10609 10605 10603 10600 10597 10595 10592 10591 10589 10579 10575 10579 10578 10574 10571 10569 10567 10564 10563 10561 10560 10559 10557 10555 10553 10550
10694 10695 10696 10697 10698 10699 10700 10700 10701 10701 10701 10701 10701 10701 10701 10700 10698 10697 10697 10696 10695 10694 10693 10692 10691 10690 10689 10688 10687 10685 10684 10682 10681 10679 10677 10675 10673 10670 10668 10666 10663 10661 10659 10656 10653 10651 10648 10644 10641 10639 10636 10633 10630 10627 10625 10622 10620 10616 10613 10610 10609 10606 10602 10598 10595 10592 10588 10585 10583 10581 10578 10572 10569 10570 10567 10565 10563 10561 10559 10556 10555 10553 10551 10550 10548 10547 10545 10543
10692 10693 10694 10695 10696 10697 10698 10698 10699 10699 10699 10699 10699 10699 10698 10697 10696 10695 10694 10693 10692 10691 10690 10689 10688 10687 10686 10685 10683 10682 10681 10679 10677 10675 10673 10670 10668 10666 10664 10661 10658 10656 10653 10650 10648 10645 10642 10638 10635 10633 10630 10627 10624 10621 10618 10616 10613 10609 10606 10602 10601 10599 10595 10591 10587 10584 10580 10576 10574 10572 10568 10564 10563 10561 10558 10557 10555 10553 10551 10549 10547 10545 10543 10542 10540 10538 10536 10534
10690 10691 10692 10693 10694 10695 10696 10696 10697 10697 10697 10697 10697 10696 10695 10694 10693 10692 10691 10690 10689 10688 10687 10686 10685 10684 10683 10681 10679 10678 10676 10675 10673 10670 10668 10666 10664 10662 10659 10657 10654 10651 10648 10645 10643 10640 10637 10632 10629 10626 10624 10621 10617 10615 10611 10609 10606 10602 10598 10595 10592 10591 10588 10584 10580 10577 10573 10569 10567 10563 10559 10557 10556 10553 10551 10549 10548 10547 10545 10542 10540 10537 10535 10533 10531 10529 10527 10524
10688 10689 10690 10691 10692 10693 10693 10694 10694 10695 10695 10694 10694 10693 10692 10691 10690 10689 10688 10687 10686 10685 10684 10683 10682 10680 10679 10677 10676 10674 10672 10670 10668 10666 10664 10661 10659 10657 10654 10652 10648 10646 10643 10640 10637 10634 10631 10628 10624 10620 10617 10614 10610 10608 10605 10602 10599 10595 10592 10588 10585 10582 10580 10576 10572 10569 10565 10561 10559 10556 10550 10549 10549 10547 10545 10542 10540 10540 10538 10536 10534 10531 10528 10526 10523 10520 10518 10515
10686 10687 10688 10689 10690 10691 10691 10692 10692 10692 10692 10691 10691 10690 10689 10688 10687 10687 10686 10685 10684 10683 10682 10680 10678 10677 10675 10673 10672 10669 10667 10666 10664 10661 10659 10656 10654 10651 10648 10646 10643 10640 10636 10634 10631 10628 10625 10622 10618 10615 10611 10607 10604 10601 10598 10595 10592 10588 10585 10582 10578 10575 10573 10569 10566 10562 10558 10554 10553 10550 10543 10541 10542 10540 10539 10537 10534 10533 10531 10529 10527 10524 10522 10519 10516 10512 10509 10507
10684 10685 10686 10687 10688 10689 10689 10690 10690 10690 10689 10689 10688 10687 10687 10686 10685 10684 10683 10682 10681 10680 10679 10677 10675 10673 10671 10669 10667 10665 10663 10661 10659 10657 10655 10652 10649 10646 10643 10640 10638 10635 10631 10628 10626 10622 10619 10615 10612 10608 10604 10601 10597 10594 10591 10588 10585 10581 10578 10575 10571 10568 10565 10563 10559 10556 10554 10548 10546 10545 10537 10534 10536 10534 10533 10532 10529 10527 10525 10522 10519 10517 10515 10512 10507 10504 10501 10499
10682 10683 10684 10685 10686 10687 10687 10688 10688 10687 10687 10687 10686 10685 10684 10683 10683 10682 10681 10680 10679 10677 10675 10673 10671 10669 10668 10666 10664 10662 10659 10657 10655 10653 10650 10647 10644 10642 10639 10636 10633 10630 10627 10623 10620 10616 10613 10609 10605 10602 10598 10594 10591 10587 10584 10581 10578 10574 10571 10568 10565 10562 10558 10556 10554 10550 10549 10544 10539 10538 10531 10524 10527 10529 10528 10526 10523 10521 10519 10515 10513 10510 10507 10504 10500 10496 10494 10492
10680 10682 10682 10683 10684 10685 10685 10686 10685 10685 10685 10684 10683 10683 10682 10681 10680 10679 10678 10677 10675 10673 10671 10669 10668 10666 10664 10663 10660 10658 10656 10653 10651 10648 10646 10643 10641 10638 10635 10632 10629 10625 10621 10617 10613 10610 10606 10603 10599 10596 10592 10589 10585 10581 10578 10575 10572 10569 10565 10562 10559 10556 10552 10549 10547 10544 10543 10540 10535 10532 10524 10515 10517 10521 10521 10519 10515 10514 10513 10510 10506 10504 10499 10496 10494 10491 10488 10485
10679 10680 10680 10681 10681 10682 10683 10683 10683 10683 10682 10681 10681 10680 10679 10678 10677 10676 10675 10673 10671 10669 10668 10666 10664 10662 10660 10659 10656 10654 10652 10649 10646 10644 10641 10639 10636 10633 10631 10627 10624 10620 10616 10612 10608 10604 10601 10597 10594 10590 10587 10583 10580 10576 10572 10569 10566 10563 10560 10557 10554 10551 10547 10543 10539 10535 10534 10535 10533 10528 10518 10507 10507 10511 10512 10512 10509 10507 10507 10504 10501 10497 10493 10490 10488 10485 10482 10478
10677 10677 10678 10679 10679 10680 10681 10681 10681 10680 10680 10679 10678 10677 10676 10675 10674 10673 10671 10670 10668 10666 10664 10663 10661 10659 10657 10655 10652 10650 10647 10645 10642 10640 10637 10635 10632 10629 10626 10623 10620 10616 10612 10608 10604 10600 10596 10592 10588 10585 10581 10578 10574 10570 10567 10563 10560 10557 10554 10551 10548 10545 10542 10538 10534 10528 10523 10524 10527 10525 10515 10501 10498 10503 10504 10502 10503 10501 10500 10497 10493 10490 10487 10484 10480 10477 10475 10471
10675 10676 10676 10677 10677 10678 10678 10678 10678 10677 10677 10676 10675 10674 10673 10672 10671 10669 10668 10666 10664 10662 10661 10659 10657 10655 10653 10651 10648 10646 10643 10641 10638 10636 10633 10630 10628 10625 10622 10619 10616 10612 10608 10604 10599 10595 10591 10587 10583 10579 10576 10572 10569 10565 10562 10558 10555 10552 10549 10546 10543 10539 10536 10533 10530 10525 10517 10515 10515 10515 10511 10498 10489 10494 10496 10494 10494 10494 10493 10489 10484 10483 10480 10475 10471 10468 10465 10463
10673 10674 10674 10675 10675 10676 10676 10676 10675 10674 10674 10673 10671 10670 10670 10669 10667 10666 10665 10663 10661 10659 10657 10656 10654 10651 10649 10647 10644 10642 10639 10637 10634 10632 10629 10626 10624 10621 10618 10615 10611 10607 10603 10599 10595 10591 10587 10583 10579 10575 10571 10567 10564 10560 10557 10553 10550 10547 10544 10541 10537 10534 10531 10527 10524 10520 10514 10510 10508 10505 10504 10497 10485 10486 10490 10487 10486 10485 10483 10480 10476 10473 10470 10466 10463 10460 10457 10454
10671 10671 10672 10673 10673 10673 10674 10673 10673 10672 10671 10670 10668 10667 10667 10666 10664 10663 10661 10660 10658 10656 10654 10652 10650 10648 10645 10643 10640 10638 10635 10633 10630 10627 10625 10622 10620 10617 10614 10610 10607 10603 10599 10595 10590 10586 10582 10578 10574 10570 10566 10563 10559 10556 10552 10549 10545 10542 10539 10536 10532 10528 10525 10522 10518 10515 10510 10505 10503 10498 10496 10491 10481 10481 10486 10483 10481 10479 10475 10473 10469 10463 10460 10457 10454 10451 10449 10446
10669 10669 10670 10670 10671 10671 10671 10671 10670 10669 10668 10667 10665 10664 10663 10662 10661 10659 10658 10656 10654 10653 10650 10648 10646 10644 10641 10639 10636 10634 10631 10628 10626 10623 10621 10618 10615 10612 10609 10606 10602 10598 10594 10589 10585 10581 10577 10573 10569 10565 10562 10558 10554 10551 10547 10544 10540 10537 10534 10531 10528 10524 10520 10517 10513 10510 10505 10500 10497 10491 10489 10485 10474 10471 10478 10478 10475 10472 10468 10465 10461 10456 10452 10449 10446 10443 10441 10437
10667 10667 10667 10668 10668 10668 10668 10668 10667 10666 10665 10664 10662 10661 10660 10659 10658 10656 10655 10653 10651 10649 10647 10645 10642 10640 10638 10635 10632 10630 10628 10625 10622 10620 10617 10614 10611 10607 10604 10600 10597 10593 10588 10584 10580 10575 10572 10568 10564 10560 10557 10553 10549 10545 10542 10538 10535 10532 10529 10526 10523 10520 10515 10511 10508 10505 10501 10496 10491 10485 10481 10479 10470 10463 10465 10469 10468 10464 10460 10457 10454 10451 10447 10442 10439 10436 10433 10429
10664 10665 10665 10665 10666 10666 10665 10665 10664 10663 10662 10661 10659 10658 10657 10656 10655 10653 10651 10649 10647 10646 10644 10641 10639 10636 10634 10631 10629 10626 10624 10621 10618 10615 10612 10609 10606 10602 10599 10595 10591 10588 10584 10580 10575 10570 10566 10562 10558 10555 10552 10548 10544 10540 10536 10532 10530 10527 10523 10520 10517 10514 10510 10505 10502 10499 10495 10491 10486 10479 10473 10469 10465 10460 10456 10457 10459 10458 10455 10452 10448 10446 10443 10439 10434 10429 10425 10422
10662 10662 10663 10663 10663 10663 10662 10662 10660 10659 10659 10658 10656 10655 10654 10653 10651 10650 10648 10646 10644 10642 10640 10638 10635 10633 10630 10628 10625 10623 10620 10617 10614 10611 10608 10605 10601 10598 10594 10590 10585 10582 10578 10574 10570 10566 10561 10557 10553 10550 10546 10544 10540 10536 10532 10528 10524 10521 10519 10516 10512 10509 10505 10500 10495 10492 10489 10485 10480 10474 10469 10461 10454 10452 10453 10450 10448 10448 10447 10445 10442 10439 10437 10434 10430 10425 10420 10415
10660 10660 10660 10660 10660 10660 10659 10658 10657 10656 10656 10655 10653 10652 10651 10649 10648 10647 10645 10642 10640 10638 10636 10634 10632 10629 10627 10624 10622 10619 10616 10613 10610 10607 10604 10600 10597 10593 10589 10585 10581 10576 10572 10567 10564 10560 10557 10552 10548 10545 10541 10537 10534 10531 10528 10524 10519 10515 10512 10510 10507 10505 10502 10496 10491 10488 10485 10482 10476 10469 10465 10459 10447 10440 10442 10444 10441 10439 10437 10435 10434 10432 10428 10425 10422 10418 10414 10409
10658 10658 10657 10657 10657 10656 10656 10655 10654 10653 10653 10652 10650 10649 10647 10646 10645 10643 10641 10639 10637 10635 10633 10630 10628 10626 10623 10620 10618 10615 10612 10609 10606 10603 10600 10596 10593 10589 10585 10582 10577 10573 10568 10563 10558 10553 10550 10547 10543 10540 10536 10532 10528 10525 10522 10519 10515 10510 10505 10502 10499 10497 10496 10493 10488 10485 10482 10478 10473 10466 10460 10455 10445 10431 10426 10430 10432 10430 10428 10426 10424 10421 10417 10414 10411 10408 10405 10401
10655 10655 10654 10654 10654 10653 10653 10652 10651 10650 10649 10648 10647 10646 10644 10643 10641 10639 10638 10636 10633 10631 10629 10627 10624 10622 10619 10616 10614 10611 10608 10605 10602 10599 10596 10592 10589 10585 10581 10578 10574 10570 10566 10561 10556 10550 10544 10541 10538 10535 10531 10527 10523 10519 10516 10513 10509 10504 10499 10495 10491 10487 10486 10485 10481 10478 10477 10474 10469 10463 10456 10450 10444 10429 10414 10413 10418 10418 10418 10417 10414 10410 10406 10402 10399 10395 10392 10390
10652 10652 10652 10651 10651 10650 10649 10648 10647 10646 10646 10645 10643 10642 10640 10639 10637 10636 10634 10632 10630 10628 10625 10623 10621 10618 10616 10613 10610 10607 10604 10601 10598 10595 10591 10588 10584 10580 10577 10574 10570 10567 10563 10559 10555 10549 10541 10535 10532 10529 10525 10522 10518 10513 10509 10506 10503 10499 10493 10488 10484 10480 10477 10475 10473 10469 10467 10468 10464 10459 10453 10446 10443 10431 10411 10405 10407 10406 10406 10408 10406 10402 10397 10392 10388 10383 10380 10378
10650 10649 10649 10648 10648 10647 10646 10645 10644 10643 10642 10641 10639 10638 10636 10635 10633 10632 10630 10628 10626 10624 10621 10619 10617 10614 10612 10609 10606 10603 10600 10597 10593 10590 10587 10583 10580 10576 10572 10569 10565 10562 10559 10556 10552 10548 10541 10532 10526 10523 10519 10515 10512 10507 10502 10498 10496 10492 10486 10482 10478 10474 10470 10467 10466 10462 10459 10460 10459 10454 10449 10442 10439 10431 10414 10404 10403 10400 10398 10399 10397 10394 10390 10385 10379 10373 10369 10367
10647 10647 10646 10645 10645 10644 10643 10642 10641 10640 10639 10637 10635 10634 10633 10631 10629 10627 10626 10624 10622 10620 10618 10615 10613 10610 10608 10605 10602 10599 10596 10593 10589 10586 10582 10579 10575 10572 10568 10564 10560 10557 10554 10551 10548 10545 10541 10532 10521 10516 10513 10508 10505 10502 10495 10491 10488 10483 10478 10473 10469 10467 10463 10460 10458 10455 10451 10452 10452 10449 10443 10437 10432 10425 10412 10403 10400 10397 10394 10391 10388 10385 10381 10376 10368 10361 10358 10355
10644 10643 10643 10642 10641 10640 10639 10638 10637 10636 10635 10633 10632 10630 10629 10627 10625 10623 10621 10620 10618 10616 10614 10611 10609 10606 10604 10601 10598 10595 10592 10588 10585 10581 10578 10574 10570 10566 10563 10559 10555 10552 10548 10546 10544 10540 10538 10533 10523 10513 10508 10503 10499 10496 10490 10485 10480 10476 10470 10464 10459 10456 10454 10451 10449 10446 10442 10441 10443 10443 10439 10433 10425 10414 10404 10399 10395 10393 10389 10384 10380 10378 10372 10364 10357 10351 10347 10343
10640 10640 10639 10638 10637 10636 10635 10634 10634 10633 10631 10630 10628 10626 10625 10623 10621 10619 10617 10616 10614 10612 10609 10607 10605 10602 10600 10597 10594 10591 10588 10584 10581 10577 10574 10570 10565 10561 10558 10554 10550 10547 10543 10540 10538 10535 10532 10530 10523 10513 10506 10499 10493 10489 10486 10481 10475 10470 10464 10457 10450 10446 10443 10442 10439 10434 10430 10427 10427 10429 10434 10431 10417 10402 10396 10393 10388 10384 10379 10375 10372 10368 10361 10353 10346 10342 10337 10332
10636 10636 10635 10634 10633 10633 10632 10631 10630 10629 10627 10626 10624 10622 10621 10619 10617 10615 10613 10612 10609 10608 10605 10603 10601 10598 10596 10593 10590 10586 10583 10580 10577 10573 10570 10566 10562 10557 10553 10549 10545 10542 10538 10534 10532 10530 10526 10523 10519 10512 10503 10495 10487 10482 10478 10475 10469 10464 10458 10450 10443 10437 10433 10433 10432 10426 10419 10414 10409 10408 10421 10424 10403 10387 10387 10383 10376 10371 10366 10364 10360 10353 10347 10341 10336 10331 10326 10322
10632 10632 10631 10631 10630 10629 10628 10627 10626 10624 10623 10622 10620 10618 10617 10615 10613 10611 10609 10608 10605 10604 10602 10599 10597 10594 10591 10588 10586 10582 10578 10575 10572 10568 10565 10561 10557 10553 10548 10544 10540 10536 10533 10529 10525 10523 10520 10517 10514 10508 10501 10493 10484 10476 10471 10467 10463 10456 10450 10443 10435 10429 10423 10421 10423 10420 10412 10406 10397 10390 10404 10411 10388 10372 10375 10369 10361 10357 10353 10349 10344 10337 10332 10328 10324 10318 10312 10308
10629 10628 10628 10627 10626 10626 10624 10623 10622 10620 10619 10617 10616 10614 10613 10611 10609 10607 10605 10603 10601 10600 10597 10595 10593 10590 10587 10584 10581 10579 10575 10570 10566 10562 10559 10555 10551 10547 10543 10539 10535 10530 10527 10524 10519 10515 10512 10509 10507 10504 10498 10490 10481 10473 10467 10462 10457 10450 10442 10435 10428 10421 10416 10412 10411 10410 10406 10401 10389 10380 10390 10395 10378 10364 10362 10354 10348 10346 10340 10333 10327 10321 10316 10311 10306 10302 10296 10292
10625 10625 10624 10623 10623 10622 10620 10619 10617 10616 10615 10613 10612 10610 10608 10606 10605 10603 10601 10599 10598 10596 10593 10591 10589 10585 10583 10580 10577 10574 10571 10567 10561 10555 10553 10549 10545 10540 10536 10532 10528 10524 10520 10518 10513 10509 10505 10501 10497 10497 10495 10488 10478 10469 10463 10459 10454 10447 10438 10430 10423 10416 10411 10407 10401 10397 10397 10393 10381 10372 10375 10379 10369 10356 10348 10341 10337 10333 10325 10317 10311 10304 10299 10293 10288 10284 10280 10276
10622 10621 10620 10619 10618 10617 10616 10615 10613 10611 10610 10609 10608 10606 10604 10602 10601 10599 10597 10595 10593 10592 10589 10587 10584 10581 10578 10575 10572 10569 10567 10564 10558 10551 10547 10544 10539 10534 10530 10526 10522 10518 10513 10510 10507 10503 10499 10492 10486 10485 10485 10482 10475 10467 10462 10458 10452 10445 10435 10425 10418 10411 10405 10400 10393 10386 10383 10382 10375 10363 10357 10360 10356 10341 10331 10327 10323 10318 10310 10302 10295 10288 10283 10279 10274 10270 10265 10260
10618 10617 10616 10615 10614 10613 10612 10610 10609 10607 10606 10605 10604 10602 10600 10598 10597 10595 10593 10591 10589 10587 10585 10583 10580 10577 10573 10570 10567 10564 10561 10559 10554 10548 10543 10539 10535 10530 10525 10520 10516 10511 10506 10502 10499 10496 10493 10487 10478 10473 10470 10465 10461 10455 10451 10450 10445 10437 10428 10416 10407 10401 10395 10389 10382 10374 10366 10365 10367 10355 10339 10342 10345 10329 10317 10314 10307 10301 10297 10290 10284 10277 10271 10266 10261 10257 10251 10245
10613 10612 10611 10610 10609 10608 10607 10606 10605 10603 10602 10601 10599 10598 10596 10594 10592 10590 10589 10587 10585 10583 10581 10578 10576 10572 10569 10566 10562 10558 10555 10552 10548 10544 10539 10534 10530 10526 10521 10516 10510 10505 10500 10495 10491 10487 10486 10482 10474 10469 10463 10455 10447 10441 10437 10436 10434 10427 10419 10409 10398 10390 10384 10377 10369 10361 10351 10348 10356 10350 10330 10326 10328 10318 10311 10308 10300 10292 10286 10279 10273 10267 10261 10256 10250 10243 10237 10230
10608 10607 10606 10605 10605 10604 10603 10602 10601 10599 10598 10597 10595 10593 10591 10590 10588 10586 10584 10583 10581 10579 10576 10574 10571 10568 10564 10561 10558 10554 10550 10546 10541 10537 10533 10528 10524 10520 10516 10511 10504 10499 10493 10488 10483 10479 10478 10475 10469 10464 10461 10451 10442 10436 10431 10427 10425 10419 10411 10404 10395 10385 10377 10370 10361 10351 10342 10338 10341 10341 10328 10318 10313 10305 10300 10296 10290 10285 10278 10268 10261 10254 10249 10245 10240 10232 10224 10216
10604 10603 10601 10601 10600 10599 10599 10598 10596 10595 10593 10592 10591 10589 10587 10585 10584 10582 10580 10578 10576 10575 10572 10568 10566 10563 10560 10556 10553 10549 10546 10542 10536 10532 10527 10523 10518 10514 10510 10504 10498 10493 10488 10482 10477 10472 10469 10468 10463 10459 10457 10447 10435 10431 10427 10421 10417 10410 10401 10395 10390 10382 10371 10364 10357 10345 10336 10331 10328 10327 10322 10313 10304 10297 10291 10283 10275 10271 10264 10256 10249 10242 10236 10232 10225 10216 10208 10199
10599 10598 10597 10597 10596 10595 10594 10593 10592 10590 10589 10588 10587 10585 10583 10581 10579 10578 10576 10574 10571 10570 10567 10564 10561 10558 10555 10551 10547 10543 10540 10537 10532 10528 10524 10519 10514 10509 10505 10500 10493 10488 10483 10477 10472 10466 10462 10461 10456 10452 10452 10443 10429 10423 10421 10415 10409 10403 10394 10386 10382 10376 10366 10357 10349 10339 10330 10325 10319 10313 10309 10303 10293 10286 10280 10272 10263 10256 10248 10241 10233 10225 10219 10214 10207 10198 10190 10181
10594 10594 10593 10593 10592 10591 10590 10589 10587 10586 10585 10584 10582 10580 10579 10577 10575 10573 10571 10569 10566 10564 10562 10560 10556 10553 10549 10545 10542 10537 10534 10530 10526 10522 10519 10514 10509 10504 10500 10495 10489 10483 10478 10472 10467 10461 10455 10452 10447 10443 10443 10436 10423 10416 10413 10407 10400 10394 10387 10380 10373 10366 10358 10349 10340 10331 10324 10318 10311 10301 10295 10290 10282 10273 10267 10259 10251 10244 10236 10227 10218 10210 10202 10196 10189 10181 10173 10164
10590 10590 10589 10588 10588 10586 10585 10584 10583 10582 10580 10579 10577 10576 10574 10573 10571 10569 10566 10564 10562 10559 10557 10555 10551 10548 10543 10540 10536 10532 10528 10524 10519 10516 10511 10507 10502 10497 10493 10488 10482 10477 10471 10465 10460 10454 10447 10443 10437 10432 10432 10428 10416 10409 10406 10399 10391 10383 10377 10371 10363 10354 10348 10341 10331 10322 10314 10308 10301 10292 10283 10278 10271 10264 10258 10251 10242 10234 10225 10215 10204 10197 10190 10182 10173 10165 10157 10147
10586 10585 10585 10584 10583 10582 10581 10579 10578 10577 10576 10574 10572 10571 10570 10568 10567 10565 10562 10559 10557 10555 10553 10550 10547 10543 10538 10534 10531 10527 10523 10518 10514 10509 10505 10500 10495 10491 10486 10480 10474 10469 10463 10457 10452 10447 10439 10434 10428 10422 10420 10417 10408 10400 10397 10390 10382 10376 10369 10361 10354 10346 10340 10334 10324 10314 10303 10294 10287 10281 10274 10267 10260 10253 10246 10240 10233 10223 10214 10204 10192 10183 10178 10171 10161 10150 10138 10128